| Date | Time | Temp. (oF) | Dew Point (oF) | Rel. Hum. (%) | Press. (in.) | Wind Dir. | Wind Speed (mph) | Hourly Rainfall (in.) |
|
|---|---|---|---|---|---|---|---|---|---|
| 1 | 11/12 | 00:00 | 51 | 43 | 76 | 29.89 | WSW | 1 | 0.00 |
| 2 | 11/11 | 23:00 | 52 | 44 | 76 | 29.91 | W | 0 | 0.00 |
| 3 | 11/11 | 22:00 | 53 | 44 | 74 | 29.91 | W | 0 | 0.00 |
| 4 | 11/11 | 21:00 | 53 | 44 | 73 | 29.93 | N | 0 | 0.00 |
| 5 | 11/11 | 20:00 | 54 | 44 | 71 | 29.92 | NNE | 6 | 0.00 |
| 6 | 11/11 | 19:00 | 55 | 45 | 70 | 29.92 | N | 3 | 0.00 |
| 7 | 11/11 | 18:00 | 56 | 45 | 69 | 29.89 | W | 3 | 0.00 |
| 8 | 11/11 | 17:00 | 57 | 46 | 68 | 29.87 | N | 7 | 0.00 |
| 9 | 11/11 | 16:00 | 58 | 46 | 66 | 29.86 | NNE | 8 | 0.00 |
| 10 | 11/11 | 15:00 | 59 | 46 | 64 | 29.84 | N | 17 | 0.00 |
| 11 | 11/11 | 14:00 | 59 | 47 | 66 | 29.83 | W | 6 | 0.00 |
| 12 | 11/11 | 13:00 | 59 | 49 | 70 | 29.84 | NNE | 10 | 0.00 |
| 13 | 11/11 | 12:00 | 56 | 47 | 73 | 29.87 | NNE | 7 | 0.00 |
| 14 | 11/11 | 11:00 | 55 | 47 | 75 | 29.87 | NNW | 9 | 0.00 |
| 15 | 11/11 | 10:00 | 54 | 47 | 79 | 29.85 | W | 6 | 0.00 |
| 16 | 11/11 | 09:00 | 53 | 47 | 81 | 29.83 | W | 5 | 0.00 |
| 17 | 11/11 | 08:00 | 53 | 48 | 84 | 29.81 | NNW | 8 | 0.00 |
| 18 | 11/11 | 07:00 | 52 | 47 | 85 | 29.79 | W | 6 | 0.00 |
| 19 | 11/11 | 06:00 | 51 | 47 | 87 | 29.78 | W | 4 | 0.00 |
| 20 | 11/11 | 05:00 | 52 | 48 | 89 | 29.77 | W | 3 | 0.01 |
| 21 | 11/11 | 04:00 | 52 | 49 | 90 | 29.76 | W | 6 | 0.00 |
| 22 | 11/11 | 03:00 | 52 | 48 | 89 | 29.75 | W | 5 | 0.01 |
| 23 | 11/11 | 02:00 | 53 | 49 | 89 | 29.74 | W | 6 | 0.02 |
| 24 | 11/11 | 01:00 | 53 | 49 | 89 | 29.73 | NW | 4 | 0.00 |